Radiation Dose at Monitoring Post of Fukushima Daini Nuclear Power Station
Date,Time,MP-1(microSv/h),MP-2(microSv/h),MP-3(microSv/h),MP-4(microSv/h),MP-5(microSv/h),MP-6(microSv/h),MP-7(microSv/h),Wind Direction,Wind Velocity(m/s),Rain
2018/10/05,00:00,0.301,0.189,0.307,0.296,0.283,0.153,0.093,east,2.2,No
2018/10/05,00:10,0.306,0.191,0.308,0.295,0.282,0.154,0.093,east,2.7,No
2018/10/05,00:20,0.304,0.189,0.306,0.297,0.281,0.152,0.093,east-southeast,3.0,No
2018/10/05,00:30,0.303,0.191,0.309,0.298,0.283,0.153,0.093,east-southeast,1.6,No
2018/10/05,00:40,0.303,0.189,0.306,0.295,0.281,0.153,0.094,east-southeast,1.7,No
2018/10/05,00:50,0.305,0.190,0.309,0.295,0.283,0.153,0.093,southeast,1.6,No
2018/10/05,01:00,0.303,0.188,0.307,0.296,0.280,0.154,0.094,east,1.3,No
2018/10/05,01:10,0.303,0.189,0.308,0.295,0.283,0.153,0.093,southeast,1.4,No
2018/10/05,01:20,0.304,0.189,0.306,0.295,0.279,0.153,0.093,east-southeast,1.3,No
2018/10/05,01:30,0.303,0.190,0.310,0.295,0.282,0.153,0.093,southeast,1.0,No
2018/10/05,01:40,0.304,0.189,0.307,0.296,0.282,0.152,0.094,southeast,1.1,No
2018/10/05,01:50,0.303,0.189,0.309,0.295,0.281,0.153,0.093,south-southeast,0.9,No
2018/10/05,02:00,0.304,0.188,0.308,0.296,0.282,0.151,0.094,east-southeast,1.0,No
2018/10/05,02:10,0.303,0.190,0.307,0.295,0.280,0.153,0.093,southeast,1.0,No
2018/10/05,02:20,0.303,0.190,0.307,0.297,0.283,0.152,0.093,south,0.9,No
2018/10/05,02:30,0.302,0.190,0.307,0.295,0.280,0.154,0.094,southeast,1.1,No
2018/10/05,02:40,0.304,0.189,0.307,0.296,0.283,0.153,0.093,south-southeast,0.8,No
2018/10/05,02:50,0.301,0.189,0.309,0.295,0.280,0.153,0.093,east-southeast,1.7,No
2018/10/05,03:00,0.303,0.189,0.307,0.296,0.283,0.152,0.093,south-southeast,1.1,No
2018/10/05,03:10,0.302,0.189,0.309,0.297,0.281,0.154,0.094,-,CALM,No
2018/10/05,03:20,0.305,0.189,0.307,0.296,0.283,0.152,0.093,southeast,1.0,No
2018/10/05,03:30,0.302,0.189,0.307,0.295,0.281,0.153,0.094,south-southeast,1.4,No
2018/10/05,03:40,0.303,0.189,0.306,0.295,0.282,0.152,0.093,east-southeast,1.8,No
2018/10/05,03:50,0.302,0.189,0.309,0.295,0.282,0.152,0.094,east,1.0,No
2018/10/05,04:00,0.304,0.189,0.307,0.297,0.282,0.153,0.094,east-southeast,1.2,No
2018/10/05,04:10,0.303,0.189,0.308,0.295,0.282,0.152,0.093,east-southeast,1.0,No
2018/10/05,04:20,0.304,0.189,0.307,0.294,0.280,0.153,0.094,south-southeast,0.9,No
2018/10/05,04:30,0.302,0.189,0.308,0.296,0.281,0.154,0.093,south-southeast,0.6,No
2018/10/05,04:40,0.304,0.190,0.307,0.296,0.280,0.151,0.093,east-southeast,1.4,No
2018/10/05,04:50,0.304,0.189,0.308,0.295,0.284,0.153,0.094,southeast,1.1,No
2018/10/05,05:00,0.304,0.189,0.306,0.295,0.279,0.152,0.094,east-southeast,2.3,No
2018/10/05,05:10,0.303,0.190,0.309,0.295,0.283,0.153,0.093,east-southeast,3.0,No
2018/10/05,05:20,0.304,0.190,0.307,0.295,0.280,0.153,0.094,east-southeast,2.6,No
2018/10/05,05:30,0.302,0.190,0.308,0.296,0.282,0.153,0.093,east-southeast,2.9,No
2018/10/05,05:40,0.303,0.189,0.306,0.294,0.279,0.152,0.094,southeast,1.8,No
2018/10/05,05:50,0.303,0.189,0.307,0.296,0.283,0.153,0.094,east-southeast,2.3,No
2018/10/05,06:00,0.305,0.189,0.306,0.294,0.280,0.152,0.094,east-southeast,1.9,No
2018/10/05,06:10,0.303,0.190,0.309,0.297,0.283,0.152,0.094,southeast,0.6,No
2018/10/05,06:20,0.305,0.189,0.307,0.296,0.280,0.153,0.094,southeast,1.9,No
2018/10/05,06:30,0.302,0.190,0.308,0.298,0.283,0.153,0.094,southeast,3.0,No
2018/10/05,06:40,0.303,0.189,0.305,0.295,0.281,0.153,0.094,southeast,2.3,No
2018/10/05,06:50,0.302,0.190,0.310,0.296,0.281,0.154,0.094,southeast,2.1,No
2018/10/05,07:00,0.305,0.188,0.305,0.294,0.282,0.152,0.094,southeast,2.8,No
2018/10/05,07:10,0.303,0.190,0.309,0.296,0.279,0.154,0.093,southeast,2.1,No
2018/10/05,07:20,0.302,0.189,0.306,0.296,0.283,0.152,0.093,east-southeast,2.1,No
2018/10/05,07:30,0.304,0.188,0.307,0.294,0.280,0.153,0.094,east-southeast,0.8,No
2018/10/05,07:40,0.302,0.190,0.307,0.295,0.279,0.153,0.093,southeast,1.2,No
2018/10/05,07:50,0.305,0.190,0.307,0.293,0.282,0.152,0.093,east-southeast,2.0,No
2018/10/05,08:00,0.302,0.190,0.308,0.296,0.280,0.154,0.094,southeast,1.5,No
2018/10/05,08:10,0.302,0.187,0.306,0.295,0.282,0.152,0.093,southeast,1.9,No
2018/10/05,08:20,0.305,0.189,0.308,0.296,0.282,0.153,0.094,southeast,1.4,No
2018/10/05,08:30,0.302,0.190,0.306,0.295,0.279,0.152,0.093,east-southeast,1.2,No
2018/10/05,08:40,0.304,0.188,0.308,0.293,0.282,0.151,0.093,south-southeast,1.6,No
2018/10/05,08:50,0.303,0.190,0.308,0.296,0.280,0.153,0.094,south-southeast,1.5,No
2018/10/05,09:00,0.299,0.189,0.305,0.294,0.279,0.152,0.094,-,CALM,No
2018/10/05,09:10,0.304,0.188,0.307,0.294,0.282,0.152,0.094,-,CALM,No
2018/10/05,09:20,0.303,0.190,0.307,0.296,0.282,0.153,0.093,-,CALM,No
2018/10/05,09:30,0.300,0.189,0.305,0.295,0.282,0.152,0.094,south-southeast,2.7,No
2018/10/05,09:40,0.301,0.188,0.309,0.292,0.278,0.151,0.093,south,2.1,No
2018/10/05,09:50,0.304,0.187,0.306,0.292,0.278,0.154,0.094,south-southeast,2.2,No
2018/10/05,10:00,0.304,0.187,0.304,0.297,0.283,0.153,0.093,south-southeast,2.1,No
2018/10/05,10:10,0.300,0.187,0.308,0.297,0.282,0.154,0.093,south,1.9,No
2018/10/05,10:20,0.301,0.186,0.306,0.295,0.281,0.152,0.093,south,2.6,No
2018/10/05,10:30,0.301,0.187,0.305,0.293,0.280,0.152,0.093,south,3.1,No
2018/10/05,10:40,0.299,0.188,0.309,0.294,0.279,0.153,0.093,south-southeast,1.9,No
2018/10/05,10:50,0.301,0.188,0.307,0.294,0.279,0.152,0.093,south-southeast,2.9,No
2018/10/05,11:00,0.300,0.188,0.304,0.291,0.279,0.152,0.093,south-southeast,0.9,No
2018/10/05,11:10,0.300,0.188,0.305,0.294,0.279,0.153,0.093,south-southeast,1.6,No
2018/10/05,11:20,0.301,0.189,0.310,0.293,0.279,0.153,0.093,south-southeast,3.2,No
2018/10/05,11:30,0.301,0.187,0.306,0.293,0.279,0.153,0.094,south-southeast,2.2,No
2018/10/05,11:40,0.300,0.188,0.305,0.298,0.279,0.153,0.094,south-southeast,2.5,No
2018/10/05,11:50,0.300,0.189,0.306,0.296,0.283,0.153,0.093,south-southeast,2.8,No
2018/10/05,12:00,0.303,0.191,0.310,0.295,0.284,0.153,0.093,south-southeast,2.3,No
2018/10/05,12:10,0.305,0.190,0.307,0.293,0.282,0.154,0.093,south-southeast,3.2,No
2018/10/05,12:20,0.305,0.190,0.305,0.298,0.279,0.153,0.093,south,2.7,No
2018/10/05,12:30,0.301,0.189,0.308,0.299,0.279,0.153,0.093,south,3.7,No
2018/10/05,12:40,0.301,0.188,0.308,0.296,0.281,0.153,0.094,south,4.2,No
2018/10/05,12:50,0.301,0.189,0.306,0.295,0.284,0.154,0.093,south,3.8,No
2018/10/05,13:00,0.304,0.191,0.304,0.298,0.282,0.153,0.093,south,2.7,No
2018/10/05,13:10,0.306,0.190,0.308,0.299,0.279,0.152,0.093,south,3.6,No
2018/10/05,13:20,0.304,0.189,0.308,0.296,0.279,0.153,0.094,south,3.0,No
2018/10/05,13:30,0.302,0.189,0.307,0.293,0.282,0.154,0.094,south,2.9,No
2018/10/05,13:40,0.303,0.189,0.307,0.298,0.283,0.152,0.093,south-southeast,3.0,No
2018/10/05,13:50,0.306,0.190,0.310,0.298,0.282,0.153,0.094,south-southeast,2.2,No
2018/10/05,14:00,0.303,0.188,0.306,0.295,0.280,0.153,0.094,south,2.1,No
2018/10/05,14:10,0.302,0.189,0.308,0.298,0.284,0.153,0.093,south,2.4,No
2018/10/05,14:20,0.307,0.190,0.310,0.298,0.282,0.152,0.094,south,3.6,No
2018/10/05,14:30,0.305,0.189,0.307,0.294,0.279,0.153,0.094,south-southwest,3.0,No
2018/10/05,14:40,0.302,0.190,0.308,0.298,0.284,0.153,0.094,south,1.6,No
2018/10/05,14:50,0.306,0.190,0.310,0.297,0.282,0.153,0.094,south-southeast,1.5,No
2018/10/05,15:00,0.304,0.189,0.305,0.296,0.280,0.153,0.094,south,2.2,No
2018/10/05,15:10,0.302,0.190,0.308,0.298,0.284,0.154,0.094,south-southeast,1.6,No
2018/10/05,15:20,0.306,0.191,0.309,0.297,0.282,0.152,0.093,south,1.8,No
2018/10/05,15:30,0.303,0.190,0.307,0.295,0.279,0.154,0.094,south,1.8,No
2018/10/05,15:40,0.302,0.189,0.308,0.298,0.283,0.154,0.094,south,1.3,No
2018/10/05,15:50,0.304,0.190,0.308,0.297,0.284,0.152,0.094,south-southeast,0.6,No
2018/10/05,16:00,0.304,0.189,0.307,0.296,0.281,0.154,0.094,-,CALM,No
2018/10/05,16:10,0.301,0.191,0.310,0.299,0.283,0.154,0.094,-,CALM,No
2018/10/05,16:20,0.305,0.189,0.308,0.298,0.283,0.153,0.092,south-southeast,1.3,No
2018/10/05,16:30,0.304,0.189,0.308,0.295,0.280,0.154,0.095,south,1.8,No
2018/10/05,16:40,0.301,0.191,0.308,0.299,0.284,0.154,0.095,south,1.9,No
2018/10/05,16:50,0.306,0.189,0.306,0.296,0.282,0.153,0.093,south,2.5,No
2018/10/05,17:00,0.304,0.190,0.310,0.296,0.280,0.154,0.094,south,2.0,No
2018/10/05,17:10,0.301,0.190,0.307,0.299,0.284,0.153,0.094,south,1.3,No
2018/10/05,17:20,0.305,0.188,0.307,0.295,0.282,0.154,0.094,south,0.7,No
2018/10/05,17:30,0.303,0.191,0.309,0.299,0.279,0.155,0.094,south-southwest,0.6,No
2018/10/05,17:40,0.306,0.191,0.307,0.297,0.284,0.153,0.093,-,CALM,No
2018/10/05,17:50,0.305,0.190,0.309,0.295,0.281,0.153,0.094,-,CALM,No
2018/10/05,18:00,0.303,0.191,0.308,0.299,0.281,0.154,0.093,-,CALM,No
2018/10/05,18:10,0.305,0.190,0.307,0.297,0.285,0.153,0.093,-,CALM,No
2018/10/05,18:20,0.304,0.190,0.308,0.296,0.280,0.154,0.094,-,CALM,No
2018/10/05,18:30,0.305,0.189,0.306,0.299,0.282,0.154,0.093,south-southwest,0.7,No
2018/10/05,18:40,0.305,0.191,0.311,0.295,0.283,0.153,0.094,south-southwest,2.3,No
2018/10/05,18:50,0.302,0.191,0.307,0.299,0.281,0.154,0.095,south-southwest,0.7,No
2018/10/05,19:00,0.306,0.189,0.309,0.298,0.286,0.153,0.093,southwest,0.6,No
2018/10/05,19:10,0.303,0.190,0.309,0.296,0.280,0.153,0.094,southwest,0.7,No
2018/10/05,19:20,0.304,0.190,0.308,0.297,0.283,0.154,0.094,south-southwest,2.0,No
2018/10/05,19:30,0.305,0.191,0.310,0.295,0.283,0.153,0.094,south-southwest,2.9,No
2018/10/05,19:40,0.302,0.189,0.306,0.298,0.281,0.154,0.095,south-southwest,3.6,No
2018/10/05,19:50,0.305,0.191,0.308,0.298,0.283,0.153,0.094,south-southwest,2.6,No
2018/10/05,20:00,0.303,0.191,0.308,0.297,0.282,0.153,0.095,south-southwest,1.8,No
2018/10/05,20:10,0.302,0.190,0.310,0.298,0.282,0.154,0.094,south-southwest,2.2,No
2018/10/05,20:20,0.306,0.189,0.309,0.296,0.282,0.153,0.095,south-southwest,2.1,No
2018/10/05,20:30,0.304,0.190,0.307,0.299,0.282,0.154,0.094,south-southwest,2.2,No
2018/10/05,20:40,0.306,0.191,0.311,0.296,0.284,0.153,0.094,south,1.3,No
2018/10/05,20:50,0.302,0.190,0.305,0.298,0.283,0.154,0.095,south,3.4,No
2018/10/05,21:00,0.303,0.191,0.310,0.298,0.281,0.154,0.094,south,1.3,No
2018/10/05,21:10,0.305,0.190,0.309,0.295,0.284,0.154,0.094,south,4.0,No
2018/10/05,21:20,0.302,0.191,0.308,0.298,0.281,0.154,0.094,south-southwest,4.1,No
2018/10/05,21:30,0.305,0.189,0.309,0.296,0.282,0.154,0.093,south-southwest,3.2,No
2018/10/05,21:40,0.304,0.190,0.307,0.298,0.284,0.153,0.095,south-southwest,3.0,No
2018/10/05,21:50,0.304,0.190,0.311,0.297,0.280,0.154,0.094,south-southwest,3.1,No
2018/10/05,22:00,0.305,0.189,0.309,0.295,0.283,0.153,0.094,south,3.0,No
2018/10/05,22:10,0.303,0.191,0.308,0.298,0.282,0.153,0.095,south,2.4,No
2018/10/05,22:20,0.306,0.189,0.310,0.296,0.281,0.153,0.094,south,2.3,No
2018/10/05,22:30,0.303,0.191,0.308,0.298,0.284,0.154,0.095,south,2.0,No
2018/10/05,22:40,0.304,0.189,0.310,0.298,0.280,0.154,0.094,south,2.5,No
2018/10/05,22:50,0.305,0.189,0.308,0.296,0.283,0.154,0.094,south,3.4,Yes
2018/10/05,23:00,0.304,0.192,0.308,0.299,0.284,0.155,0.095,south,1.8,No
2018/10/05,23:10,0.306,0.190,0.310,0.296,0.279,0.154,0.094,south,1.8,Yes
2018/10/05,23:20,0.304,0.190,0.307,0.298,0.285,0.153,0.095,south,1.2,No
2018/10/05,23:30,0.305,0.190,0.310,0.299,0.283,0.154,0.094,south,0.8,No
2018/10/05,23:40,0.305,0.191,0.308,0.297,0.281,0.154,0.094,south,1.0,No
2018/10/05,23:50,0.303,0.191,0.309,0.299,0.286,0.153,0.095,south-southwest,1.4,No
